This is the latest recevied weather packets stored in our database for station/object WX7FGZ-3. If no packets are shown the sender has not sent any weather packets the latest 10 day(s).
| Time | Temp. | Humidity | Pressure | Rain* | Wind** | Luminosity | Snow |
|---|---|---|---|---|---|---|---|
| 1778138579 | -1.11° C | 46% | 1019.6 hPa | 0 mm | - | - | - |
| 1778138278 | -1.11° C | 46% | 1019.6 hPa | 0 mm | - | - | - |
| 1778137978 | -1.11° C | 48% | 1019.4 hPa | 0 mm | - | - | - |
| 1778137678 | -1.67° C | 49% | 1019.3 hPa | 0 mm | - | - | - |
| 1778137077 | -1.67° C | 51% | 1019 hPa | 0 mm | - | - | - |
| 1778136477 | -1.67° C | 47% | 1018.8 hPa | 0 mm | - | - | - |
| 1778135876 | -1.11° C | 50% | 1018.8 hPa | 0 mm | - | - | - |
| 1778135276 | -1.11° C | 51% | 1018.8 hPa | 0 mm | - | - | - |
| 1778134675 | -0.56° C | 48% | 1018.9 hPa | 0 mm | - | - | - |
| 1778134074 | 0° C | 50% | 1018.9 hPa | 0 mm | - | - | - |
| 1778132273 | -0.56° C | 55% | 1018.5 hPa | 0 mm | - | - | - |
| 1778131372 | 0° C | 47% | 1018.5 hPa | 0 mm | - | - | - |
| 1778130771 | -0.56° C | 51% | 1018.4 hPa | 0 mm | - | - | - |
| 1778130471 | -1.11° C | 50% | 1018.4 hPa | 0 mm | - | - | - |
| 1778130171 | -1.67° C | 51% | 1018.5 hPa | 0 mm | - | - | - |
| 1778129871 | -2.22° C | 51% | 1018.4 hPa | 0 mm | - | - | - |
| 1778129570 | -2.22° C | 49% | 1018.1 hPa | 0 mm | - | - | - |
| 1778129270 | -1.67° C | 48% | 1018.1 hPa | 0 mm | - | - | - |
| 1778128970 | -1.67° C | 48% | 1018.1 hPa | 0 mm | - | - | - |
| 1778128369 | -0.56° C | 46% | 1018.2 hPa | 0 mm | - | - | - |
| 1778128069 | 0° C | 45% | 1017.9 hPa | 0 mm | - | - | - |
| 1778127769 | 0.56° C | 45% | 1017.8 hPa | 0 mm | - | - | - |
| 1778127468 | 0.56° C | 46% | 1017.7 hPa | 0 mm | - | - | - |
| 1778127168 | 0.56° C | 46% | 1017.7 hPa | 0 mm | - | - | - |
| 1778126867 | 1.11° C | 44% | 1017.5 hPa | 0 mm | - | - | - |
* Rain latest hour (hover to see other rain measurements)
** Current wind speed in m/s (hover to see current wind gust speed)